This demonstration page uses our WeatherBlox Daily Observations layout. Learn more.

Left ArrowRight Arrow

44.31136, -96.79839

Hourly Observations for July 16, 2015

Temp ( °F °C ) Dew Point ( °F °C ) Humidity (%) Winds ( mph kmh ) Pressure ( in mb ) Visibility ( mi km ) Precip ( " mm )
12:15 am 00:15 Mostly Clear 70 21 64 18 83 83 SSE 10 17 29.85 1011 10 16 0.00 0.00
12:35 am 00:35 Clear 70 21 64 18 83 83 SSE 9 15 29.85 1011 10 16 0.00 0.00
12:55 am 00:55 Clear 70 21 64 18 83 83 SSE 8 13 29.85 1011 10 16 0.00 0.00
1:15 am 01:15 Clear 68 20 64 18 88 88 S 8 13 29.85 1011 10 16 0.00 0.00
1:35 am 01:35 Clear 66 19 63 17 88 88 SSE 8 13 29.85 1011 10 16 0.00 0.00
1:55 am 01:55 Clear 66 19 63 17 88 88 SSE 9 15 29.83 1010 10 16 0.00 0.00
2:15 am 02:15 Clear N/A N/A N/A SSE 12 19 N/A 10 16 0.00 0.00
2:35 am 02:35 Clear 66 19 63 17 88 88 SSE 9 15 29.83 1010 10 16 0.00 0.00
2:55 am 02:55 Clear 66 19 63 17 88 88 SSE 8 13 29.80 1009 10 16 0.00 0.00
3:15 am 03:15 Clear 64 18 63 17 94 94 SSE 8 13 29.80 1009 10 16 0.00 0.00
3:35 am 03:35 Clear 64 18 63 17 94 94 SSE 8 13 29.80 1009 10 16 0.00 0.00
3:55 am 03:55 Clear 66 19 63 17 88 88 SSE 10 17 29.77 1008 10 16 0.00 0.00
4:15 am 04:15 Clear 66 19 63 17 88 88 S 9 15 29.77 1008 10 16 0.00 0.00
4:35 am 04:35 Clear 64 18 63 17 94 94 S 6 9 29.77 1008 10 16 0.00 0.00
4:55 am 04:55 Clear 64 18 63 17 94 94 S 3 6 29.77 1008 10 16 0.00 0.00
5:15 am 05:15 Partly Cloudy 64 18 63 17 94 94 SSE 3 6 29.80 1009 10 16 0.00 0.00
5:35 am 05:35 Mostly Cloudy 64 18 63 17 94 94 SE 5 7 29.80 1009 10 16 0.00 0.00
5:55 am 05:55 Partly Cloudy 64 18 63 17 94 94 SSE 6 9 29.80 1009 10 16 0.00 0.00
6:15 am 06:15 Sunny 64 18 63 17 94 94 ESE 6 9 29.77 1008 10 16 0.00 0.00
6:35 am 06:35 Sunny 66 19 63 17 88 88 E 5 7 29.77 1008 10 16 0.00 0.00
6:55 am 06:55 Sunny 64 18 63 17 94 94 ESE 8 13 29.77 1008 10 16 0.00 0.00
7:15 am 07:15 Sunny 66 19 63 17 88 88 ESE 10 17 29.77 1008 10 16 0.00 0.00
7:35 am 07:35 Mostly Cloudy 66 19 63 17 88 88 ESE 7 11 29.77 1008 10 16 0.00 0.00
7:55 am 07:55 Cloudy 66 19 63 17 88 88 ESE 9 15 29.74 1007 10 16 0.00 0.00
8:15 am 08:15 Cloudy 68 20 63 17 83 83 ESE 9 15 29.74 1007 10 16 0.00 0.00
8:35 am 08:35 Cloudy 68 20 64 18 88 88 ESE 8 13 29.74 1007 10 16 0.00 0.00
8:55 am 08:55 Cloudy 70 21 64 18 83 83 ESE 9 15 29.77 1008 10 16 0.00 0.00
9:15 am 09:15 Cloudy 70 21 64 18 83 83 ESE 7 11 29.77 1008 10 16 0.00 0.00
9:35 am 09:35 Cloudy 70 21 64 18 83 83 ESE 8 13 29.77 1008 10 16 0.00 0.00
9:55 am 09:55 Cloudy 70 21 64 18 83 83 SSE 3 6 29.77 1008 10 16 0.00 0.00
10:15 am 10:15 Cloudy 70 21 64 18 83 83 SE 7 11 29.74 1007 10 16 0.00 0.00
10:35 am 10:35 Cloudy 70 21 64 18 83 83 SE 7 11 29.74 1007 10 16 0.00 0.00
10:55 am 10:55 Cloudy 70 21 64 18 83 83 E 6 9 29.74 1007 10 16 0.00 0.00
11:15 am 11:15 Cloudy 72 22 64 18 78 78 ESE 9 15 29.74 1007 10 16 0.00 0.00
11:35 am 11:35 Cloudy 72 22 64 18 78 78 ESE 7 11 29.74 1007 10 16 0.00 0.00
11:55 am 11:55 Cloudy 72 22 64 18 78 78 E 7 11 29.74 1007 10 16 0.00 0.00
12:15 pm 12:15 Cloudy 72 22 64 18 78 78 E 6 9 29.74 1007 10 16 0.00 0.00
12:35 pm 12:35 Cloudy 72 22 64 18 78 78 ESE 6 9 29.74 1007 10 16 0.00 0.00
12:55 pm 12:55 Cloudy 73 23 64 18 74 74 E 6 9 29.68 1005 10 16 0.00 0.00
1:15 pm 13:15 Cloudy 73 23 66 19 78 78 ESE 5 7 29.68 1005 10 16 0.00 0.00
1:35 pm 13:35 Cloudy 73 23 66 19 78 78 S 7 11 29.68 1005 10 16 0.00 0.00
1:55 pm 13:55 Cloudy 75 24 66 19 74 74 Calm 29.68 1005 10 16 0.00 0.00
2:15 pm 14:15 Cloudy 75 24 66 19 74 74 SSW 7 11 29.65 1004 10 16 0.00 0.00
2:35 pm 14:35 Mostly Cloudy 77 25 64 18 65 65 SW 3 6 29.65 1004 10 16 0.00 0.00
2:55 pm 14:55 Mostly Cloudy 79 26 64 18 61 61 SSE 6 9 29.65 1004 10 16 0.00 0.00
3:15 pm 15:15 Partly Cloudy 79 26 66 19 65 65 WNW 3 6 29.65 1004 10 16 0.00 0.00
3:35 pm 15:35 Mostly Cloudy 79 26 66 19 65 65 S 6 9 29.65 1004 10 16 0.00 0.00
3:55 pm 15:55 Cloudy 79 26 66 19 65 65 Calm 29.65 1004 10 16 0.00 0.00
4:15 pm 16:15 Mostly Cloudy 81 27 66 19 62 62 SW 7 11 29.62 1003 10 16 0.00 0.00
4:35 pm 16:35 Mostly Sunny 81 27 68 20 66 66 W 5 7 29.62 1003 10 16 0.00 0.00
4:55 pm 16:55 Mostly Cloudy 81 27 66 19 62 62 SW 6 9 29.62 1003 10 16 0.00 0.00
5:15 pm 17:15 Cloudy 81 27 68 20 66 66 SSW 5 7 29.62 1003 10 16 0.00 0.00
5:35 pm 17:35 Mostly Cloudy 81 27 70 21 70 70 SW 6 9 29.62 1003 10 16 0.00 0.00
5:55 pm 17:55 Partly Cloudy 81 27 70 21 70 70 S 7 11 29.62 1003 10 16 0.00 0.00
6:15 pm 18:15 Partly Cloudy 81 27 70 21 70 70 S 5 7 29.62 1003 10 16 0.00 0.00
6:35 pm 18:35 Partly Cloudy 81 27 70 21 70 70 S 3 6 29.62 1003 10 16 0.00 0.00
6:55 pm 18:55 Partly Cloudy N/A N/A N/A Calm N/A 10 16 0.00 0.00
7:15 pm 19:15 Sunny 81 27 66 19 62 62 SE 3 6 29.62 1003 10 16 0.00 0.00
7:35 pm 19:35 Sunny with Nearby Thunderstorms 79 26 70 21 74 74 SSE 7 11 29.65 1004 10 16 0.00 0.00
7:55 pm 19:55 Sunny with Thunderstorms N/A N/A N/A SSE 7 11 N/A 10 16 0.00 0.00
8:15 pm 20:15 Mostly Sunny 79 26 70 21 74 74 SE 6 9 29.65 1004 10 16 0.00 0.00
8:35 pm 20:35 Mostly Cloudy 79 26 70 21 74 74 SSE 7 11 29.65 1004 10 16 0.00 0.00
8:55 pm 20:55 Mostly Sunny 79 26 70 21 74 74 S 7 11 29.65 1004 10 16 0.00 0.00
9:15 pm 21:15 Clear 75 24 70 21 83 83 SSW 8 13 29.65 1004 10 16 0.00 0.00
9:35 pm 21:35 Clear 73 23 70 21 89 89 SW 3 6 29.65 1004 10 16 0.00 0.00
9:55 pm 21:55 Clear 72 22 66 19 83 83 Calm 29.65 1004 10 16 0.00 0.00
10:15 pm 22:15 Clear 72 22 64 18 78 78 Calm 29.65 1004 10 16 0.00 0.00
10:35 pm 22:35 Clear 72 22 64 18 78 78 Calm 29.65 1004 10 16 0.00 0.00
10:55 pm 22:55 Clear 70 21 63 17 78 78 SSW 6 9 29.68 1005 10 16 0.00 0.00
11:15 pm 23:15 Clear 68 20 61 16 78 78 S 6 9 29.68 1005 10 16 0.00 0.00
11:35 pm 23:35 Clear 68 20 61 16 78 78 SSW 9 15 29.68 1005 10 16 0.00 0.00
11:55 pm 23:55 Clear 66 19 63 17 88 88 SSW 7 11 29.68 1005 10 16 0.00 0.00

Powered by AerisWeather